This is the latest recevied weather packets stored in our database for station/object KC3QLX. If no packets are shown the sender has not sent any weather packets the latest 10 day(s).
| Time | Temp. | Humidity | Pressure | Rain* | Wind** | Luminosity | Snow |
|---|---|---|---|---|---|---|---|
| 1778092819 | 15.56° C | 99% | 1006.9 hPa | 0 mm | - | 99 W/m² | - |
| 1778092514 | 15.56° C | 99% | 1006.8 hPa | 0 mm | - | 131 W/m² | - |
| 1778092211 | 15.56° C | 99% | 1007 hPa | 0 mm | - | 92 W/m² | - |
| 1778091909 | 15.56° C | 99% | 1007.1 hPa | 0 mm | - | 65 W/m² | - |
| 1778091605 | 15.56° C | 99% | 1007.2 hPa | 0 mm | - | 50 W/m² | - |
| 1778091303 | 15.56° C | 99% | 1007.3 hPa | 0 mm | - | 46 W/m² | - |
| 1778091000 | 15.56° C | 99% | 1007 hPa | 1.78 mm | - | 35 W/m² | - |
| 1778090696 | 15.56° C | 99% | 1007.2 hPa | 1.78 mm | - | 51 W/m² | - |
| 1778090393 | 15.56° C | 99% | 1007.1 hPa | 1.27 mm | - | 39 W/m² | - |
| 1778090090 | 15.56° C | 99% | 1007 hPa | 1.27 mm | - | 68 W/m² | - |
| 1778089786 | 15.56° C | 99% | 1007.1 hPa | 3.05 mm | - | 70 W/m² | - |
| 1778089485 | 15.56° C | 99% | 1007.3 hPa | 3.05 mm | - | 67 W/m² | - |
| 1778089181 | 15.56° C | 99% | 1007.1 hPa | 3.05 mm | - | 62 W/m² | - |
| 1778088879 | 15.56° C | 99% | 1006.9 hPa | 3.05 mm | - | 87 W/m² | - |
| 1778088575 | 15.56° C | 99% | 1006.8 hPa | 3.05 mm | - | 100 W/m² | - |
| 1778088272 | 15.56° C | 99% | 1007.1 hPa | 3.05 mm | - | 126 W/m² | - |
| 1778087969 | 15.56° C | 99% | 1007 hPa | 4.32 mm | - | 90 W/m² | - |
| 1778087666 | 15.56° C | 99% | 1007.2 hPa | 3.05 mm | - | 85 W/m² | - |
| 1778087364 | 15.56° C | 99% | 1007.3 hPa | 4.83 mm | - | 97 W/m² | - |
| 1778087059 | 15.56° C | 99% | 1007.3 hPa | 4.83 mm | - | 88 W/m² | - |
| 1778086753 | 15.56° C | 99% | 1007.3 hPa | 4.32 mm | - | 114 W/m² | - |
| 1778086451 | 15.56° C | 99% | 1007.3 hPa | 6.1 mm | - | 88 W/m² | - |
| 1778086147 | 15.56° C | 99% | 1007 hPa | 4.83 mm | - | 172 W/m² | - |
| 1778085843 | 15.56° C | 99% | 1007.2 hPa | 4.83 mm | - | 151 W/m² | - |
| 1778085536 | 15.56° C | 99% | 1007.1 hPa | 4.32 mm | - | 131 W/m² | - |
* Rain latest hour (hover to see other rain measurements)
** Current wind speed in m/s (hover to see current wind gust speed)